Time,TemperatureF,DewpointF,PressureIn,WindDirection,WindDirectionDegrees,WindSpeedMPH,WindSpeedGustMPH,Humidity,HourlyPrecipIn,Conditions,Clouds,dailyrainin,SoftwareType,DateUTC
2013-08-07 00:04:00,72.0,70.1,30.00,South,180,1.0,3.0,94,0.00,RA,,0.00,WeatherDisplay:10.37,2013-08-07 04:04:00,
2013-08-07 00:09:00,72.0,70.1,30.00,South,187,0.0,2.0,94,0.00,CLR,,0.00,WeatherDisplay:10.37,2013-08-07 04:09:00,
2013-08-07 00:14:00,71.8,70.0,30.00,SSW,194,0.0,6.0,94,0.00,CLR,,0.00,WeatherDisplay:10.37,2013-08-07 04:14:00,
2013-08-07 00:20:00,71.6,69.8,30.00,SSW,209,0.0,2.0,94,0.00,CLR,,0.00,WeatherDisplay:10.37,2013-08-07 04:20:00,
2013-08-07 00:24:00,71.6,69.5,30.01,West,279,0.0,0.0,93,0.00,CLR,,0.00,WeatherDisplay:10.37,2013-08-07 04:24:00,
2013-08-07 00:30:00,71.6,69.5,30.01,NW,315,0.0,0.0,93,0.00,CLR,,0.00,WeatherDisplay:10.37,2013-08-07 04:30:00,
2013-08-07 00:34:00,71.4,69.6,30.01,NW,315,0.0,0.0,94,0.00,CLR,,0.00,WeatherDisplay:10.37,2013-08-07 04:34:00,
2013-08-07 00:40:00,71.4,69.6,30.01,NW,315,0.0,0.0,94,0.00,CLR,,0.00,WeatherDisplay:10.37,2013-08-07 04:40:00,
2013-08-07 00:44:00,71.4,69.6,30.01,NW,315,0.0,0.0,94,0.00,CLR,,0.00,WeatherDisplay:10.37,2013-08-07 04:44:00,
2013-08-07 00:50:00,71.4,69.9,30.01,NW,315,0.0,0.0,95,0.00,CLR,,0.00,WeatherDisplay:10.37,2013-08-07 04:50:00,
2013-08-07 00:54:00,71.4,69.9,30.01,NW,315,0.0,0.0,95,0.00,CLR,,0.00,WeatherDisplay:10.37,2013-08-07 04:54:00,
2013-08-07 00:59:00,71.4,69.9,30.01,NW,315,0.0,0.0,95,0.00,CLR,,0.00,WeatherDisplay:10.37,2013-08-07 04:59:00,
2013-08-07 01:04:00,71.4,69.9,30.01,NW,315,0.0,0.0,95,0.00,CLR,,0.00,WeatherDisplay:10.37,2013-08-07 05:04:00,
2013-08-07 01:10:00,71.4,69.9,30.01,NW,315,0.0,0.0,95,0.00,CLR,,0.00,WeatherDisplay:10.37,2013-08-07 05:10:00,
2013-08-07 01:14:00,71.4,69.9,30.00,NW,315,0.0,0.0,95,0.00,CLR,,0.00,WeatherDisplay:10.37,2013-08-07 05:14:00,
2013-08-07 01:20:00,71.4,69.9,30.00,NW,315,0.0,0.0,95,0.00,CLR,,0.00,WeatherDisplay:10.37,2013-08-07 05:20:00,
2013-08-07 01:24:00,71.4,69.9,30.01,NW,315,0.0,0.0,95,0.00,CLR,,0.00,WeatherDisplay:10.37,2013-08-07 05:24:00,
2013-08-07 01:30:00,71.4,69.9,30.00,NW,315,0.0,0.0,95,0.00,CLR,,0.00,WeatherDisplay:10.37,2013-08-07 05:30:00,
2013-08-07 01:35:00,71.4,69.9,30.00,NW,315,0.0,0.0,95,0.00,CLR,,0.00,WeatherDisplay:10.37,2013-08-07 05:35:00,
2013-08-07 01:40:00,71.4,69.9,30.00,NW,315,0.0,0.0,95,0.00,CLR,,0.00,WeatherDisplay:10.37,2013-08-07 05:40:00,
2013-08-07 01:45:00,71.4,69.9,30.00,NW,315,0.0,0.0,95,0.00,CLR,,0.00,WeatherDisplay:10.37,2013-08-07 05:45:00,
2013-08-07 01:50:00,71.4,69.9,30.00,NW,315,0.0,0.0,95,0.00,CLR,,0.00,WeatherDisplay:10.37,2013-08-07 05:50:00,
2013-08-07 01:54:00,71.5,70.0,30.00,WNW,282,0.0,5.0,95,0.00,CLR,,0.00,WeatherDisplay:10.37,2013-08-07 05:54:00,
2013-08-07 01:59:00,71.6,69.8,30.00,SSW,196,0.0,2.0,94,0.00,CLR,,0.00,WeatherDisplay:10.37,2013-08-07 05:59:00,
2013-08-07 02:04:00,71.6,69.8,30.00,SSE,156,0.0,0.0,94,0.00,CLR,,0.00,WeatherDisplay:10.37,2013-08-07 06:04:00,
2013-08-07 02:09:00,71.6,69.8,30.00,SE,135,0.0,0.0,94,0.00,CLR,,0.00,WeatherDisplay:10.37,2013-08-07 06:09:00,
2013-08-07 02:14:00,71.6,69.8,30.00,SE,135,0.0,0.0,94,0.00,CLR,,0.00,WeatherDisplay:10.37,2013-08-07 06:14:00,
2013-08-07 02:20:00,71.6,69.8,30.00,South,184,0.0,3.0,94,0.00,CLR,,0.00,WeatherDisplay:10.37,2013-08-07 06:20:00,
2013-08-07 02:30:00,71.6,69.8,30.00,West,266,0.0,0.0,94,0.00,CLR,,0.00,WeatherDisplay:10.37,2013-08-07 06:30:00,
2013-08-07 02:35:00,71.6,69.8,30.00,WSW,257,0.0,0.0,94,0.00,CLR,,0.00,WeatherDisplay:10.37,2013-08-07 06:35:00,
2013-08-07 02:40:00,71.6,69.8,29.99,West,264,0.0,0.0,94,0.00,CLR,,0.00,WeatherDisplay:10.37,2013-08-07 06:40:00,
2013-08-07 02:50:00,71.6,69.8,29.99,West,270,0.0,0.0,94,0.00,CLR,,0.00,WeatherDisplay:10.37,2013-08-07 06:50:00,
2013-08-07 03:00:00,71.6,69.8,29.99,SW,224,0.0,0.0,94,0.00,CLR,,0.00,WeatherDisplay:10.37,2013-08-07 07:00:00,
2013-08-07 03:05:00,71.6,69.8,29.99,SW,224,0.0,0.0,94,0.00,CLR,,0.00,WeatherDisplay:10.37,2013-08-07 07:05:00,
2013-08-07 03:10:00,71.6,69.8,29.99,WSW,241,0.0,0.0,94,0.00,CLR,,0.00,WeatherDisplay:10.37,2013-08-07 07:10:00,
2013-08-07 03:14:00,71.6,69.8,29.99,SW,225,0.0,0.0,94,0.00,CLR,,0.00,WeatherDisplay:10.37,2013-08-07 07:14:00,
2013-08-07 03:20:00,71.6,69.8,29.99,SW,225,0.0,0.0,94,0.00,CLR,,0.00,WeatherDisplay:10.37,2013-08-07 07:20:00,
2013-08-07 03:24:00,71.6,69.8,29.99,SW,225,0.0,0.0,94,0.00,CLR,,0.00,WeatherDisplay:10.37,2013-08-07 07:24:00,
2013-08-07 03:30:00,71.6,69.8,29.99,SW,225,0.0,0.0,94,0.00,CLR,,0.00,WeatherDisplay:10.37,2013-08-07 07:30:00,
2013-08-07 03:35:00,71.6,69.8,29.99,SW,225,0.0,0.0,94,0.00,CLR,,0.00,WeatherDisplay:10.37,2013-08-07 07:35:00,
2013-08-07 03:40:00,71.6,69.8,29.99,SW,225,0.0,0.0,94,0.00,CLR,,0.00,WeatherDisplay:10.37,2013-08-07 07:40:00,
2013-08-07 03:44:00,71.6,69.8,29.99,SW,225,0.0,0.0,94,0.00,CLR,,0.00,WeatherDisplay:10.37,2013-08-07 07:44:00,
2013-08-07 03:50:00,71.6,69.8,29.99,SW,225,0.0,0.0,94,0.00,CLR,,0.00,WeatherDisplay:10.37,2013-08-07 07:50:00,
2013-08-07 04:00:00,71.6,69.8,29.98,SSW,196,0.0,2.0,94,0.00,CLR,,0.00,WeatherDisplay:10.37,2013-08-07 08:00:00,
2013-08-07 04:04:00,71.6,69.8,29.99,SW,220,0.0,0.0,94,0.00,CLR,,0.00,WeatherDisplay:10.37,2013-08-07 08:04:00,
2013-08-07 04:09:00,71.6,69.8,29.99,WSW,239,0.0,0.0,94,0.00,CLR,,0.00,WeatherDisplay:10.37,2013-08-07 08:09:00,
2013-08-07 04:14:00,71.5,70.0,29.99,West,262,0.0,0.0,95,0.00,CLR,,0.00,WeatherDisplay:10.37,2013-08-07 08:14:00,
2013-08-07 04:20:00,71.4,69.9,29.99,West,270,0.0,0.0,95,0.00,CLR,,0.00,WeatherDisplay:10.37,2013-08-07 08:20:00,
2013-08-07 04:25:00,71.4,69.9,29.99,West,270,0.0,0.0,95,0.00,CLR,,0.00,WeatherDisplay:10.37,2013-08-07 08:25:00,
2013-08-07 04:30:00,71.4,69.9,29.99,West,270,0.0,0.0,95,0.00,CLR,,0.00,WeatherDisplay:10.37,2013-08-07 08:30:00,
2013-08-07 04:35:00,71.4,69.9,29.99,West,270,0.0,0.0,95,0.00,CLR,,0.00,WeatherDisplay:10.37,2013-08-07 08:35:00,
2013-08-07 04:40:00,71.4,69.9,29.99,West,270,0.0,0.0,95,0.00,CLR,,0.00,WeatherDisplay:10.37,2013-08-07 08:40:00,
2013-08-07 04:44:00,71.4,69.9,29.99,West,270,0.0,0.0,95,0.00,CLR,,0.00,WeatherDisplay:10.37,2013-08-07 08:44:00,
2013-08-07 04:50:00,71.4,69.9,29.98,West,270,0.0,0.0,95,0.00,CLR,,0.00,WeatherDisplay:10.37,2013-08-07 08:50:00,
2013-08-07 04:59:00,71.4,69.9,29.98,West,270,0.0,0.0,95,0.00,CLR,,0.00,WeatherDisplay:10.37,2013-08-07 08:59:00,
2013-08-07 05:04:00,71.4,69.9,29.98,West,270,0.0,0.0,95,0.00,CLR,,0.00,WeatherDisplay:10.37,2013-08-07 09:04:00,
2013-08-07 05:10:00,71.4,69.9,29.98,West,270,0.0,0.0,95,0.00,CLR,,0.00,WeatherDisplay:10.37,2013-08-07 09:10:00,
2013-08-07 05:15:00,71.4,69.9,29.98,West,270,0.0,0.0,95,0.00,CLR,,0.00,WeatherDisplay:10.37,2013-08-07 09:15:00,
2013-08-07 05:20:00,71.4,69.9,29.98,WNW,282,0.0,0.0,95,0.00,CLR,,0.00,WeatherDisplay:10.37,2013-08-07 09:20:00,
2013-08-07 05:30:00,71.2,69.7,29.98,North,0,0.0,0.0,95,0.00,CLR,,0.00,WeatherDisplay:10.37,2013-08-07 09:30:00,
2013-08-07 05:40:00,71.2,69.7,29.98,North,0,0.0,0.0,95,0.00,CLR,,0.00,WeatherDisplay:10.37,2013-08-07 09:40:00,
2013-08-07 05:44:00,71.2,69.7,29.98,North,0,0.0,0.0,95,0.00,CLR,,0.00,WeatherDisplay:10.37,2013-08-07 09:44:00,
2013-08-07 05:50:00,71.1,69.6,29.98,North,0,0.0,0.0,95,0.00,CLR,,0.00,WeatherDisplay:10.37,2013-08-07 09:50:00,
2013-08-07 05:59:00,71.1,69.6,29.99,North,0,0.0,0.0,95,0.00,CLR,,0.00,WeatherDisplay:10.37,2013-08-07 09:59:00,
2013-08-07 06:04:00,71.1,69.6,29.99,North,0,0.0,0.0,95,0.00,CLR,,0.00,WeatherDisplay:10.37,2013-08-07 10:04:00,
2013-08-07 06:10:00,71.1,69.6,29.99,North,0,0.0,0.0,95,0.00,CLR,,0.00,WeatherDisplay:10.37,2013-08-07 10:10:00,
2013-08-07 06:14:00,71.1,69.6,29.99,North,0,0.0,0.0,95,0.00,CLR,,0.00,WeatherDisplay:10.37,2013-08-07 10:14:00,
2013-08-07 06:20:00,71.1,69.6,30.00,North,0,0.0,0.0,95,0.00,CLR,,0.00,WeatherDisplay:10.37,2013-08-07 10:20:00,
2013-08-07 06:30:00,71.1,69.6,30.00,North,0,0.0,0.0,95,0.00,CLR,,0.00,WeatherDisplay:10.37,2013-08-07 10:30:00,
2013-08-07 06:35:00,71.1,69.6,30.00,North,0,0.0,0.0,95,0.00,CLR,,0.00,WeatherDisplay:10.37,2013-08-07 10:35:00,
2013-08-07 06:40:00,71.1,69.6,30.00,North,0,0.0,0.0,95,0.00,CLR,,0.00,WeatherDisplay:10.37,2013-08-07 10:40:00,
2013-08-07 06:44:00,71.2,69.7,30.00,North,0,0.0,0.0,95,0.00,CLR,,0.00,WeatherDisplay:10.37,2013-08-07 10:44:00,
2013-08-07 06:50:00,71.2,69.7,30.00,North,0,0.0,0.0,95,0.00,CLR,,0.00,WeatherDisplay:10.37,2013-08-07 10:50:00,
2013-08-07 06:55:00,71.1,69.6,30.00,North,0,0.0,0.0,95,0.00,CLR,,0.00,WeatherDisplay:10.37,2013-08-07 10:55:00,
2013-08-07 07:00:00,71.1,69.6,30.00,NE,56,0.0,0.0,95,0.00,CLR,,0.00,WeatherDisplay:10.37,2013-08-07 11:00:00,
2013-08-07 07:04:00,71.1,69.6,30.00,East,90,0.0,0.0,95,0.00,CLR,,0.00,WeatherDisplay:10.37,2013-08-07 11:04:00,
2013-08-07 07:09:00,70.9,69.4,30.00,ENE,76,0.0,0.0,95,0.00,CLR,,0.00,WeatherDisplay:10.37,2013-08-07 11:09:00,
2013-08-07 07:14:00,70.9,69.4,30.01,NNW,339,0.0,0.0,95,0.00,CLR,,0.00,WeatherDisplay:10.37,2013-08-07 11:14:00,
2013-08-07 07:20:00,70.9,69.4,30.01,NW,315,0.0,0.0,95,0.00,CLR,,0.00,WeatherDisplay:10.37,2013-08-07 11:20:00,
2013-08-07 07:25:00,71.1,69.6,30.01,NW,315,0.0,0.0,95,0.00,CLR,,0.00,WeatherDisplay:10.37,2013-08-07 11:25:00,
2013-08-07 07:30:00,71.1,69.9,30.01,NW,315,0.0,0.0,96,0.00,CLR,,0.00,WeatherDisplay:10.37,2013-08-07 11:30:00,
2013-08-07 07:34:00,71.1,69.9,30.02,NW,315,0.0,0.0,96,0.00,CLR,,0.00,WeatherDisplay:10.37,2013-08-07 11:34:00,
2013-08-07 07:40:00,71.2,70.0,30.02,NW,315,0.0,0.0,96,0.00,CLR,,0.00,WeatherDisplay:10.37,2013-08-07 11:40:00,
2013-08-07 07:50:00,71.4,70.2,30.02,SW,228,0.0,0.0,96,0.00,CLR,,0.00,WeatherDisplay:10.37,2013-08-07 11:50:00,
2013-08-07 07:54:00,71.6,70.1,30.02,WNW,297,0.0,0.0,95,0.00,CLR,,0.00,WeatherDisplay:10.37,2013-08-07 11:54:00,
2013-08-07 08:00:00,71.6,70.1,30.02,NNW,346,0.0,3.0,95,0.00,CLR,,0.00,WeatherDisplay:10.37,2013-08-07 12:00:00,
2013-08-07 08:05:00,71.8,70.3,30.02,North,0,0.0,0.0,95,0.00,CLR,,0.00,WeatherDisplay:10.37,2013-08-07 12:05:00,
2013-08-07 08:10:00,72.0,70.4,30.02,North,352,0.0,0.0,95,0.00,CLR,,0.00,WeatherDisplay:10.37,2013-08-07 12:10:00,
2013-08-07 08:14:00,72.0,70.4,30.02,North,0,0.0,0.0,95,0.00,CLR,,0.00,WeatherDisplay:10.37,2013-08-07 12:14:00,
2013-08-07 08:20:00,72.1,70.6,30.02,NNW,336,0.0,0.0,95,0.00,CLR,,0.00,WeatherDisplay:10.37,2013-08-07 12:20:00,
2013-08-07 08:30:00,72.7,71.2,30.02,West,275,0.0,3.0,95,0.00,CLR,,0.00,WeatherDisplay:10.37,2013-08-07 12:30:00,
2013-08-07 08:35:00,72.9,71.3,30.02,WNW,296,0.0,0.0,95,0.00,CLR,,0.00,WeatherDisplay:10.37,2013-08-07 12:35:00,
2013-08-07 08:40:00,72.9,71.4,30.03,WNW,290,0.0,0.0,95,0.00,CLR,,0.00,WeatherDisplay:10.37,2013-08-07 12:40:00,
2013-08-07 08:45:00,73.0,71.5,30.03,West,270,0.0,0.0,95,0.00,CLR,,0.00,WeatherDisplay:10.37,2013-08-07 12:45:00,
2013-08-07 08:50:00,73.0,71.5,30.02,West,270,0.0,0.0,95,0.00,CLR,,0.00,WeatherDisplay:10.37,2013-08-07 12:50:00,
2013-08-07 08:54:00,73.2,71.7,30.03,West,270,0.0,0.0,95,0.00,CLR,,0.00,WeatherDisplay:10.37,2013-08-07 12:54:00,
2013-08-07 09:00:00,73.2,71.7,30.03,West,270,0.0,0.0,95,0.00,CLR,,0.00,WeatherDisplay:10.37,2013-08-07 13:00:00,
2013-08-07 09:05:00,73.2,71.7,30.03,WNW,291,0.0,0.0,95,0.00,CLR,,0.00,WeatherDisplay:10.37,2013-08-07 13:05:00,
2013-08-07 09:10:00,73.4,72.2,30.04,NW,314,0.0,0.0,96,0.00,CLR,,0.00,WeatherDisplay:10.37,2013-08-07 13:10:00,
2013-08-07 09:15:00,73.4,72.2,30.04,NW,315,0.0,0.0,96,0.00,CLR,,0.00,WeatherDisplay:10.37,2013-08-07 13:15:00,
2013-08-07 09:20:00,73.6,72.4,30.03,NW,308,0.0,0.0,96,0.00,CLR,,0.00,WeatherDisplay:10.37,2013-08-07 13:20:00,
2013-08-07 09:30:00,73.8,72.6,30.04,South,180,0.0,0.0,96,0.00,CLR,,0.00,WeatherDisplay:10.37,2013-08-07 13:30:00,
2013-08-07 09:35:00,73.9,72.7,30.03,South,180,0.0,0.0,96,0.00,CLR,,0.00,WeatherDisplay:10.37,2013-08-07 13:35:00,
2013-08-07 09:40:00,74.1,72.9,30.04,South,180,0.0,1.0,96,0.00,CLR,,0.00,WeatherDisplay:10.37,2013-08-07 13:40:00,
2013-08-07 09:50:00,74.5,73.3,30.04,SSW,197,0.0,3.0,96,0.00,CLR,,0.00,WeatherDisplay:10.37,2013-08-07 13:50:00,
2013-08-07 09:55:00,74.7,73.5,30.04,SSW,193,2.0,6.0,96,0.00,CLR,,0.00,WeatherDisplay:10.37,2013-08-07 13:55:00,
2013-08-07 09:59:00,74.8,73.6,30.03,South,176,2.0,10.0,96,0.00,CLR,,0.00,WeatherDisplay:10.37,2013-08-07 13:59:00,
2013-08-07 10:04:00,75.1,73.6,30.04,SSW,202,0.0,5.0,95,0.00,CLR,,0.00,WeatherDisplay:10.37,2013-08-07 14:04:00,
2013-08-07 10:10:00,75.4,73.5,30.04,West,269,0.0,5.0,94,0.00,CLR,,0.00,WeatherDisplay:10.37,2013-08-07 14:10:00,
2013-08-07 10:15:00,75.6,73.7,30.04,WSW,245,0.0,3.0,94,0.00,CLR,,0.00,WeatherDisplay:10.37,2013-08-07 14:15:00,
2013-08-07 10:20:00,75.9,73.7,30.04,SW,215,0.0,5.0,93,0.00,CLR,,0.00,WeatherDisplay:10.37,2013-08-07 14:20:00,
2013-08-07 10:25:00,76.1,73.9,30.05,SSW,208,0.0,5.0,93,0.00,CLR,,0.00,WeatherDisplay:10.37,2013-08-07 14:25:00,
2013-08-07 10:30:00,76.5,74.0,30.04,SW,223,2.0,6.0,92,0.00,CLR,,0.00,WeatherDisplay:10.37,2013-08-07 14:30:00,
2013-08-07 10:35:00,77.0,73.5,30.04,South,182,5.0,12.0,89,0.00,CLR,,0.00,WeatherDisplay:10.37,2013-08-07 14:35:00,
2013-08-07 10:40:00,77.1,72.9,30.04,SSW,206,0.0,12.0,87,0.00,CLR,,0.00,WeatherDisplay:10.37,2013-08-07 14:40:00,
2013-08-07 10:50:00,77.7,72.8,30.05,SSW,197,0.0,6.0,85,0.00,CLR,,0.00,WeatherDisplay:10.37,2013-08-07 14:50:00,
2013-08-07 10:54:00,78.1,72.8,30.05,South,174,5.0,8.0,84,0.00,CLR,,0.00,WeatherDisplay:10.37,2013-08-07 14:54:00,
2013-08-07 10:59:00,78.3,72.7,30.05,South,185,1.0,8.0,83,0.00,CLR,,0.00,WeatherDisplay:10.37,2013-08-07 14:59:00,
2013-08-07 11:10:00,78.8,72.1,30.04,SSW,198,1.0,7.0,80,0.00,CLR,,0.00,WeatherDisplay:10.37,2013-08-07 15:10:00,
2013-08-07 11:15:00,79.0,71.5,30.03,SSW,192,2.0,10.0,78,0.00,CLR,,0.00,WeatherDisplay:10.37,2013-08-07 15:15:00,
2013-08-07 11:20:00,79.3,71.9,30.04,SSW,195,3.0,10.0,78,0.00,CLR,,0.00,WeatherDisplay:10.37,2013-08-07 15:20:00,
2013-08-07 11:30:00,79.3,70.7,30.04,South,183,6.0,10.0,75,0.00,CLR,,0.00,WeatherDisplay:10.37,2013-08-07 15:30:00,
2013-08-07 11:35:00,79.7,71.5,30.04,SSW,192,5.0,8.0,76,0.00,CLR,,0.00,WeatherDisplay:10.37,2013-08-07 15:35:00,
2013-08-07 11:40:00,79.7,71.1,30.04,South,176,5.0,12.0,75,0.00,CLR,,0.00,WeatherDisplay:10.37,2013-08-07 15:40:00,
2013-08-07 11:50:00,79.7,71.1,30.05,South,170,7.0,14.0,75,0.00,CLR,,0.00,WeatherDisplay:10.37,2013-08-07 15:50:00,
2013-08-07 11:55:00,79.7,71.1,30.04,SSW,203,7.0,10.0,75,0.00,CLR,,0.00,WeatherDisplay:10.37,2013-08-07 15:55:00,
2013-08-07 11:59:00,79.5,70.9,30.04,SSW,197,2.0,8.0,75,0.00,CLR,,0.00,WeatherDisplay:10.37,2013-08-07 15:59:00,
2013-08-07 12:05:00,79.3,70.7,30.04,SSW,207,0.0,6.0,75,0.00,CLR,,0.00,WeatherDisplay:10.37,2013-08-07 16:05:00,
2013-08-07 12:10:00,79.3,71.1,30.04,SW,231,0.0,5.0,76,0.00,CLR,,0.00,WeatherDisplay:10.37,2013-08-07 16:10:00,
2013-08-07 12:14:00,79.3,70.7,30.04,South,181,6.0,10.0,75,0.00,CLR,,0.00,WeatherDisplay:10.37,2013-08-07 16:14:00,
2013-08-07 12:24:00,79.7,71.5,30.03,South,188,6.0,10.0,76,0.00,CLR,,0.00,WeatherDisplay:10.37,2013-08-07 16:24:00,
2013-08-07 12:30:00,79.9,71.2,30.03,SSW,197,3.0,10.0,75,0.00,CLR,,0.00,WeatherDisplay:10.37,2013-08-07 16:30:00,
2013-08-07 12:35:00,79.7,71.1,30.03,SSW,197,1.0,7.0,75,0.00,CLR,,0.00,WeatherDisplay:10.37,2013-08-07 16:35:00,
2013-08-07 12:40:00,79.8,71.1,30.03,South,169,5.0,8.0,75,0.00,CLR,,0.00,WeatherDisplay:10.37,2013-08-07 16:40:00,
2013-08-07 12:45:00,80.4,71.4,30.03,South,171,7.0,10.0,74,0.00,CLR,,0.00,WeatherDisplay:10.37,2013-08-07 16:45:00,
2013-08-07 12:50:00,80.4,71.0,30.03,SSW,208,6.0,14.0,73,0.00,CLR,,0.00,WeatherDisplay:10.37,2013-08-07 16:50:00,
2013-08-07 13:00:00,82.6,71.4,30.03,South,179,2.0,14.0,69,0.00,CLR,,0.00,WeatherDisplay:10.37,2013-08-07 17:00:00,
2013-08-07 13:10:00,82.3,71.6,30.03,South,176,5.0,13.0,70,0.00,CLR,,0.00,WeatherDisplay:10.37,2013-08-07 17:10:00,
2013-08-07 13:14:00,82.2,71.9,30.03,South,191,2.0,13.0,71,0.00,CLR,,0.00,WeatherDisplay:10.37,2013-08-07 17:14:00,
2013-08-07 13:20:00,81.9,71.2,30.03,SSW,205,3.0,10.0,70,0.00,CLR,,0.00,WeatherDisplay:10.37,2013-08-07 17:20:00,
2013-08-07 13:25:00,81.9,71.5,30.03,SSW,211,2.0,6.0,71,0.00,CLR,,0.00,WeatherDisplay:10.37,2013-08-07 17:25:00,
2013-08-07 13:30:00,81.9,71.6,30.03,South,189,6.0,14.0,71,0.00,CLR,,0.00,WeatherDisplay:10.37,2013-08-07 17:30:00,
2013-08-07 13:35:00,82.7,71.9,30.02,South,185,5.0,13.0,70,0.00,CLR,,0.00,WeatherDisplay:10.37,2013-08-07 17:35:00,
2013-08-07 13:40:00,83.7,72.9,30.02,SSW,207,3.0,14.0,70,0.00,CLR,,0.00,WeatherDisplay:10.37,2013-08-07 17:40:00,
2013-08-07 13:45:00,84.6,72.9,30.02,SW,216,5.0,12.0,68,0.00,CLR,,0.00,WeatherDisplay:10.37,2013-08-07 17:45:00,
2013-08-07 13:50:00,84.7,72.6,30.02,SSW,203,3.0,13.0,67,0.00,CLR,,0.00,WeatherDisplay:10.37,2013-08-07 17:50:00,
2013-08-07 13:55:00,84.9,72.3,30.01,South,182,2.0,18.0,66,0.00,CLR,,0.00,WeatherDisplay:10.37,2013-08-07 17:55:00,
2013-08-07 13:59:00,84.7,72.1,30.02,South,172,3.0,12.0,66,0.00,CLR,,0.00,WeatherDisplay:10.37,2013-08-07 17:59:00,
2013-08-07 14:05:00,84.2,71.6,30.01,South,185,6.0,14.0,66,0.00,CLR,,0.00,WeatherDisplay:10.37,2013-08-07 18:05:00,
2013-08-07 14:10:00,83.6,71.5,30.01,South,185,3.0,13.0,67,0.00,CLR,,0.00,WeatherDisplay:10.37,2013-08-07 18:10:00,
2013-08-07 14:20:00,83.2,71.5,30.01,SSW,194,3.0,16.0,68,0.00,CLR,,0.00,WeatherDisplay:10.37,2013-08-07 18:20:00,
2013-08-07 14:25:00,83.3,71.6,30.01,South,179,5.0,16.0,68,0.00,CLR,,0.00,WeatherDisplay:10.37,2013-08-07 18:25:00,
2013-08-07 14:30:00,83.3,71.6,30.00,SSW,205,5.0,14.0,68,0.00,CLR,,0.00,WeatherDisplay:10.37,2013-08-07 18:30:00,
2013-08-07 14:35:00,83.7,72.4,30.01,SW,214,7.0,14.0,69,0.00,CLR,,0.00,WeatherDisplay:10.37,2013-08-07 18:35:00,
2013-08-07 14:40:00,83.7,72.0,30.00,South,186,7.0,14.0,68,0.00,CLR,,0.00,WeatherDisplay:10.37,2013-08-07 18:40:00,
2013-08-07 14:45:00,83.7,72.0,30.01,South,187,6.0,16.0,68,0.00,CLR,,0.00,WeatherDisplay:10.37,2013-08-07 18:45:00,
2013-08-07 14:55:00,84.0,72.3,30.00,SSW,209,3.0,10.0,68,0.00,CLR,,0.00,WeatherDisplay:10.37,2013-08-07 18:55:00,
2013-08-07 14:59:00,84.0,72.3,30.00,SW,232,5.0,10.0,68,0.00,CLR,,0.00,WeatherDisplay:10.37,2013-08-07 18:59:00,
2013-08-07 15:05:00,83.7,72.0,30.00,SW,235,6.0,12.0,68,0.00,CLR,,0.00,WeatherDisplay:10.37,2013-08-07 19:05:00,
2013-08-07 15:10:00,84.0,72.3,30.00,SSW,210,6.0,13.0,68,0.00,CLR,,0.00,WeatherDisplay:10.37,2013-08-07 19:10:00,
2013-08-07 15:20:00,83.0,71.0,30.00,South,188,9.0,13.0,67,0.00,CLR,,0.00,WeatherDisplay:10.37,2013-08-07 19:20:00,
2013-08-07 15:25:00,82.6,71.0,30.00,South,178,3.0,13.0,68,0.00,CLR,,0.00,WeatherDisplay:10.37,2013-08-07 19:25:00,
2013-08-07 15:30:00,82.1,71.4,30.01,South,186,2.0,8.0,70,0.00,CLR,,0.00,WeatherDisplay:10.37,2013-08-07 19:30:00,
2013-08-07 15:35:00,81.9,71.5,30.01,SW,215,2.0,7.0,71,0.00,CLR,,0.00,WeatherDisplay:10.37,2013-08-07 19:35:00,
2013-08-07 15:44:00,81.3,71.4,30.01,SW,235,1.0,5.0,72,0.00,CLR,,0.00,WeatherDisplay:10.37,2013-08-07 19:44:00,
2013-08-07 15:50:00,81.1,71.7,30.00,ENE,73,0.0,5.0,73,0.00,CLR,,0.00,WeatherDisplay:10.37,2013-08-07 19:50:00,
2013-08-07 15:55:00,80.6,71.5,30.01,NNE,17,0.0,0.0,74,0.00,CLR,,0.00,WeatherDisplay:10.37,2013-08-07 19:55:00,
2013-08-07 16:00:00,80.4,72.1,30.02,NNE,14,0.0,0.0,76,0.00,CLR,,0.00,WeatherDisplay:10.37,2013-08-07 20:00:00,
2013-08-07 16:10:00,80.4,71.8,30.01,SSW,205,0.0,6.0,75,0.00,CLR,,0.00,WeatherDisplay:10.37,2013-08-07 20:10:00,
2013-08-07 16:15:00,80.4,71.8,30.01,WSW,254,1.0,6.0,75,0.00,CLR,,0.00,WeatherDisplay:10.37,2013-08-07 20:15:00,
2013-08-07 16:20:00,80.1,71.0,30.00,West,260,0.0,3.0,74,0.00,CLR,,0.00,WeatherDisplay:10.37,2013-08-07 20:20:00,
2013-08-07 16:25:00,79.7,71.1,30.01,SW,223,1.0,6.0,75,0.00,CLR,,0.00,WeatherDisplay:10.37,2013-08-07 20:25:00,
2013-08-07 16:30:00,79.3,70.3,30.01,SW,220,2.0,8.0,74,0.00,CLR,,0.00,WeatherDisplay:10.37,2013-08-07 20:30:00,
2013-08-07 16:35:00,78.5,69.5,30.01,SSW,210,2.0,8.0,74,0.00,CLR,,0.00,WeatherDisplay:10.37,2013-08-07 20:35:00,
2013-08-07 16:40:00,77.7,68.8,30.01,SW,215,0.0,6.0,74,0.00,CLR,,0.00,WeatherDisplay:10.37,2013-08-07 20:40:00,
2013-08-07 16:45:00,77.0,68.1,30.01,SW,223,1.0,7.0,74,0.00,CLR,,0.00,WeatherDisplay:10.37,2013-08-07 20:45:00,
2013-08-07 16:50:00,76.2,68.1,30.01,SW,216,1.0,5.0,76,0.00,CLR,,0.00,WeatherDisplay:10.37,2013-08-07 20:50:00,
2013-08-07 17:00:00,75.2,67.5,30.01,SSW,212,2.0,6.0,77,0.00,RA,,0.01,WeatherDisplay:10.37,2013-08-07 21:00:00,
2013-08-07 17:10:00,74.1,67.9,30.00,South,181,1.0,6.0,81,0.00,CLR,,0.01,WeatherDisplay:10.37,2013-08-07 21:10:00,
2013-08-07 17:15:00,73.7,67.9,30.00,SW,218,0.0,5.0,82,0.00,RA,,0.02,WeatherDisplay:10.37,2013-08-07 21:15:00,
2013-08-07 17:20:00,73.4,67.9,30.00,South,188,6.0,10.0,83,0.00,RA,,0.02,WeatherDisplay:10.37,2013-08-07 21:20:00,
2013-08-07 17:25:00,72.8,67.3,30.01,South,186,0.0,8.0,83,0.00,RA,,0.04,WeatherDisplay:10.37,2013-08-07 21:25:00,
2013-08-07 17:30:00,72.5,67.4,30.00,SW,214,1.0,5.0,84,0.00,RA,,0.04,WeatherDisplay:10.37,2013-08-07 21:30:00,
2013-08-07 17:35:00,72.3,67.6,30.00,SSW,205,1.0,6.0,85,0.00,,,0.04,WeatherDisplay:10.37,2013-08-07 21:35:00,
2013-08-07 17:45:00,72.1,67.7,30.01,South,180,1.0,5.0,86,0.00,CLR,,0.04,WeatherDisplay:10.37,2013-08-07 21:45:00,
2013-08-07 17:50:00,72.1,68.0,30.01,South,172,2.0,5.0,87,0.00,CLR,,0.04,WeatherDisplay:10.37,2013-08-07 21:50:00,
2013-08-07 17:55:00,72.0,67.9,30.00,SSW,199,0.0,3.0,87,0.00,CLR,,0.04,WeatherDisplay:10.37,2013-08-07 21:55:00,
2013-08-07 18:00:00,72.0,68.2,30.00,South,185,2.0,6.0,88,0.00,CLR,,0.04,WeatherDisplay:10.37,2013-08-07 22:00:00,
2013-08-07 18:05:00,72.0,68.2,30.00,South,190,1.0,6.0,88,0.00,CLR,,0.04,WeatherDisplay:10.37,2013-08-07 22:05:00,
2013-08-07 18:10:00,72.0,68.5,30.00,SSW,198,3.0,7.0,89,0.00,CLR,,0.04,WeatherDisplay:10.37,2013-08-07 22:10:00,
2013-08-07 18:15:00,71.8,68.4,30.00,SSW,196,1.0,5.0,89,0.00,CLR,,0.04,WeatherDisplay:10.37,2013-08-07 22:15:00,
2013-08-07 18:20:00,71.8,68.4,30.00,SSW,200,0.0,3.0,89,0.00,CLR,,0.04,WeatherDisplay:10.37,2013-08-07 22:20:00,
2013-08-07 18:25:00,72.0,68.9,30.00,SW,216,0.0,5.0,90,0.00,CLR,,0.04,WeatherDisplay:10.37,2013-08-07 22:25:00,
2013-08-07 18:30:00,72.0,68.9,30.00,South,190,0.0,0.0,90,0.00,CLR,,0.04,WeatherDisplay:10.37,2013-08-07 22:30:00,
2013-08-07 18:40:00,72.1,69.0,29.99,WNW,297,0.0,0.0,90,0.00,CLR,,0.04,WeatherDisplay:10.37,2013-08-07 22:40:00,
2013-08-07 18:45:00,72.1,69.0,29.99,WSW,250,0.0,0.0,90,0.00,CLR,,0.04,WeatherDisplay:10.37,2013-08-07 22:45:00,
2013-08-07 18:50:00,72.1,69.0,29.99,SW,228,0.0,0.0,90,0.00,CLR,,0.04,WeatherDisplay:10.37,2013-08-07 22:50:00,
2013-08-07 18:55:00,72.3,69.2,29.99,SW,225,0.0,0.0,90,0.00,CLR,,0.04,WeatherDisplay:10.37,2013-08-07 22:55:00,
2013-08-07 19:00:00,72.3,69.2,29.99,WSW,242,0.0,0.0,90,0.00,CLR,,0.04,WeatherDisplay:10.37,2013-08-07 23:00:00,
2013-08-07 19:05:00,72.3,69.2,29.99,WSW,238,0.0,0.0,90,0.00,CLR,,0.04,WeatherDisplay:10.37,2013-08-07 23:05:00,
2013-08-07 19:10:00,72.3,69.2,30.00,SSW,201,1.0,6.0,90,0.00,CLR,,0.04,WeatherDisplay:10.37,2013-08-07 23:10:00,
2013-08-07 19:20:00,72.3,69.2,29.99,South,182,2.0,6.0,90,0.00,CLR,,0.04,WeatherDisplay:10.37,2013-08-07 23:20:00,
2013-08-07 19:25:00,72.3,69.2,29.99,SSW,193,1.0,5.0,90,0.00,CLR,,0.04,WeatherDisplay:10.37,2013-08-07 23:25:00,
2013-08-07 19:30:00,72.3,69.2,29.98,South,169,0.0,2.0,90,0.00,CLR,,0.04,WeatherDisplay:10.37,2013-08-07 23:30:00,
2013-08-07 19:35:00,72.3,69.2,29.98,SSE,149,0.0,1.0,90,0.00,CLR,,0.04,WeatherDisplay:10.37,2013-08-07 23:35:00,
2013-08-07 19:40:00,72.3,69.2,29.97,SW,220,0.0,1.0,90,0.00,CLR,,0.04,WeatherDisplay:10.37,2013-08-07 23:40:00,
2013-08-07 19:45:00,72.3,69.2,29.97,South,187,1.0,6.0,90,0.00,CLR,,0.04,WeatherDisplay:10.37,2013-08-07 23:45:00,
2013-08-07 19:50:00,72.3,69.5,29.97,South,180,0.0,3.0,91,0.00,CLR,,0.04,WeatherDisplay:10.37,2013-08-07 23:50:00,
2013-08-07 19:55:00,72.1,69.4,29.97,South,191,0.0,6.0,91,0.00,CLR,,0.04,WeatherDisplay:10.37,2013-08-07 23:55:00,
2013-08-07 20:00:00,72.1,69.4,29.97,SSW,209,0.0,0.0,91,0.00,CLR,,0.04,WeatherDisplay:10.37,2013-08-08 00:00:00,
2013-08-07 20:05:00,72.1,69.4,29.98,WSW,250,0.0,0.0,91,0.00,CLR,,0.04,WeatherDisplay:10.37,2013-08-08 00:05:00,
2013-08-07 20:10:00,72.1,69.4,29.98,WNW,300,0.0,0.0,91,0.00,CLR,,0.04,WeatherDisplay:10.37,2013-08-08 00:10:00,
2013-08-07 20:15:00,72.1,69.4,29.98,WNW,297,0.0,0.0,91,0.00,CLR,,0.04,WeatherDisplay:10.37,2013-08-08 00:15:00,
2013-08-07 20:20:00,72.1,69.4,29.98,West,261,0.0,0.0,91,0.00,CLR,,0.04,WeatherDisplay:10.37,2013-08-08 00:20:00,
2013-08-07 20:25:00,72.1,69.4,29.98,WSW,249,0.0,0.0,91,0.00,CLR,,0.04,WeatherDisplay:10.37,2013-08-08 00:25:00,
2013-08-07 20:30:00,72.1,69.4,29.98,SW,219,0.0,0.0,91,0.00,CLR,,0.04,WeatherDisplay:10.37,2013-08-08 00:30:00,
2013-08-07 20:35:00,72.1,69.4,29.98,South,183,0.0,0.0,91,0.00,CLR,,0.04,WeatherDisplay:10.37,2013-08-08 00:35:00,
2013-08-07 20:40:00,72.1,69.4,29.98,SSW,197,0.0,0.0,91,0.00,CLR,,0.04,WeatherDisplay:10.37,2013-08-08 00:40:00,
2013-08-07 20:45:00,72.0,69.2,29.98,SSW,197,0.0,0.0,91,0.00,CLR,,0.04,WeatherDisplay:10.37,2013-08-08 00:45:00,
2013-08-07 20:50:00,72.0,69.2,29.99,SSW,211,0.0,0.0,91,0.00,CLR,,0.04,WeatherDisplay:10.37,2013-08-08 00:50:00,
2013-08-07 20:55:00,72.0,69.2,29.99,SW,219,0.0,0.0,91,0.00,CLR,,0.04,WeatherDisplay:10.37,2013-08-08 00:55:00,
2013-08-07 21:05:00,72.0,69.2,30.00,SW,214,0.0,0.0,91,0.00,CLR,,0.04,WeatherDisplay:10.37,2013-08-08 01:05:00,
2013-08-07 21:10:00,72.0,69.2,30.00,SW,225,0.0,0.0,91,0.00,CLR,,0.04,WeatherDisplay:10.37,2013-08-08 01:10:00,
2013-08-07 21:20:00,71.8,69.0,30.00,West,261,0.0,0.0,91,0.00,CLR,,0.04,WeatherDisplay:10.37,2013-08-08 01:20:00,
2013-08-07 21:25:00,71.8,69.0,30.00,WSW,240,0.0,0.0,91,0.00,CLR,,0.04,WeatherDisplay:10.37,2013-08-08 01:25:00,
2013-08-07 21:30:00,71.8,69.0,30.00,WSW,250,0.0,0.0,91,0.00,CLR,,0.04,WeatherDisplay:10.37,2013-08-08 01:30:00,
2013-08-07 21:35:00,71.8,69.0,30.00,WSW,249,0.0,0.0,91,0.00,CLR,,0.04,WeatherDisplay:10.37,2013-08-08 01:35:00,
2013-08-07 21:40:00,71.8,69.0,30.00,SSW,207,0.0,0.0,91,0.00,CLR,,0.04,WeatherDisplay:10.37,2013-08-08 01:40:00,
2013-08-07 21:50:00,71.7,69.0,30.00,South,188,1.0,6.0,91,0.00,CLR,,0.04,WeatherDisplay:10.37,2013-08-08 01:50:00,
2013-08-07 22:00:00,71.8,69.0,30.01,SW,215,0.0,6.0,91,0.00,CLR,,0.04,WeatherDisplay:10.37,2013-08-08 02:00:00,
2013-08-07 22:05:00,71.8,69.0,30.01,West,264,0.0,3.0,91,0.00,CLR,,0.04,WeatherDisplay:10.37,2013-08-08 02:05:00,
2013-08-07 22:10:00,71.7,68.9,30.01,WSW,256,0.0,0.0,91,0.00,CLR,,0.04,WeatherDisplay:10.37,2013-08-08 02:10:00,
2013-08-07 22:15:00,71.6,68.8,30.01,West,270,0.0,1.0,91,0.00,CLR,,0.04,WeatherDisplay:10.37,2013-08-08 02:15:00,
2013-08-07 22:20:00,71.6,68.8,30.01,West,270,0.0,0.0,91,0.00,CLR,,0.04,WeatherDisplay:10.37,2013-08-08 02:20:00,
2013-08-07 22:30:00,71.7,68.9,30.01,SSW,210,0.0,1.0,91,0.00,CLR,,0.04,WeatherDisplay:10.37,2013-08-08 02:30:00,
2013-08-07 22:35:00,71.8,69.0,30.01,SSW,192,0.0,5.0,91,0.00,CLR,,0.04,WeatherDisplay:10.37,2013-08-08 02:35:00,
2013-08-07 22:40:00,71.8,69.0,30.02,SW,221,0.0,0.0,91,0.00,CLR,,0.04,WeatherDisplay:10.37,2013-08-08 02:40:00,
2013-08-07 22:50:00,71.6,68.8,30.02,WNW,301,0.0,0.0,91,0.00,CLR,,0.04,WeatherDisplay:10.37,2013-08-08 02:50:00,
2013-08-07 22:55:00,71.6,68.8,30.03,West,273,0.0,0.0,91,0.00,CLR,,0.04,WeatherDisplay:10.37,2013-08-08 02:55:00,
2013-08-07 23:05:00,71.6,68.8,30.03,West,270,0.0,0.0,91,0.00,CLR,,0.04,WeatherDisplay:10.37,2013-08-08 03:05:00,
2013-08-07 23:10:00,71.6,68.8,30.03,West,270,0.0,0.0,91,0.00,CLR,,0.04,WeatherDisplay:10.37,2013-08-08 03:10:00,
2013-08-07 23:15:00,71.6,68.8,30.03,West,270,0.0,0.0,91,0.00,CLR,,0.04,WeatherDisplay:10.37,2013-08-08 03:15:00,
2013-08-07 23:20:00,71.6,68.8,30.03,SSE,166,0.0,0.0,91,0.00,CLR,,0.04,WeatherDisplay:10.37,2013-08-08 03:20:00,
2013-08-07 23:30:00,71.6,68.8,30.03,SW,225,0.0,0.0,91,0.00,CLR,,0.04,WeatherDisplay:10.37,2013-08-08 03:30:00,
2013-08-07 23:40:00,71.6,68.8,30.03,SW,225,0.0,0.0,91,0.00,CLR,,0.04,WeatherDisplay:10.37,2013-08-08 03:40:00,
2013-08-07 23:45:00,71.6,68.8,30.03,SW,225,0.0,0.0,91,0.00,CLR,,0.04,WeatherDisplay:10.37,2013-08-08 03:45:00,
2013-08-07 23:50:00,71.6,68.8,30.03,WSW,249,0.0,0.0,91,0.00,CLR,,0.04,WeatherDisplay:10.37,2013-08-08 03:50:00,